CW1950 Weather Reports


Display with metric or nautical units.
time (UTC)temp
F
wind
direction
speed
MPH
gust
MPH
rain 1hr
in
rain 24hr
in
rain mn
in
humidity
%
barometer
mb
20260502230002 70 219 5.0 10.0 0.00 0.00 0.00 66 1008.5
20260502220502 67 234 4.0 8.0 0.00 0.00 0.00 70 1009.7
20260502220003 67 254 4.0 8.0 0.00 0.00 0.00 70 1009.7
20260502210502 64 294 3.0 7.0 0.00 0.00 0.00 76 1010.2
20260502210003 64 289 2.0 7.0 0.00 0.00 0.00 76 1010.2
20260502200502 63 305 3.0 6.0 0.00 0.00 0.00 79 1011.0
20260502200003 63 265 3.0 6.0 0.00 0.00 0.00 79 1011.1
20260502190502 62 234 4.0 6.0 0.00 0.00 0.00 83 1011.4
20260502190004 62 218 3.0 8.0 0.00 0.00 0.00 83 1011.3
20260502180503 60 307 1.0 3.0 0.00 0.00 0.00 83 1011.5
20260502170503 59 332 1.0 3.0 0.00 0.00 0.00 86 1011.4
20260502150503 57 301 0.0 0.0 0.00 0.00 0.00 87 1010.6
20260502130503 57 302 1.0 3.0 0.00 0.00 0.00 87 1010.0
20260502120503 57 276 2.0 3.0 0.00 0.00 0.00 87 1009.7
20260502110503 57 291 1.0 2.0 0.00 0.00 0.00 87 1009.7
20260502110003 57 26 1.0 2.0 0.00 0.00 0.00 87 1009.7
20260502100503 57 318 0.0 2.0 0.00 0.00 0.00 87 1009.9
20260502090503 57 353 0.0 2.0 0.00 0.00 0.00 87 1010.4
20260502070504 57 328 0.0 2.0 0.00 0.00 0.00 87 1010.5
20260502070003 57 355 0.0 3.0 0.00 0.00 0.00 87 1010.6
20260502060004 58 24 0.0 2.0 0.00 0.00 0.00 86 1010.6
20260502050503 60 318 0.0 1.0 0.00 0.00 0.00 82 1010.6
20260502040503 62 25 2.0 3.0 0.00 0.00 0.00 78 1009.8
20260502040004 62 29 2.0 6.0 0.00 0.00 0.00 78 1009.6
20260502030004 65 0 0.0 7.0 0.00 0.00 0.00 74 1009.1
20260502020503 68 65 1.0 8.0 0.00 0.00 0.00 66 1008.8
20260502020004 68 64 2.0 8.0 0.00 0.00 0.00 66 1008.7
20260502010503 72 99 2.0 8.0 0.00 0.00 0.00 59 1008.6
20260502010003 73 90 3.0 9.0 0.00 0.00 0.00 58 1008.5
20260502000503 74 94 2.0 7.0 0.00 0.00 0.00 59 1008.6
20260502000004 74 32 2.0 8.0 0.00 0.00 0.00 59 1008.7